Wind_Speed
32 32 32 33 33 34 34 35 35 35 36 36 37 38 38 38 39 39 39 40 40 41 41 42 42 43 43 44 44 44 44 44 44 45 45 46 46 47 48 48 49 50 50
35 35 36 36 37 38 38 38 39 39 40 41 41 42 42 42 43 43 44 44 44 45 45 46 46 47 47 48 48 48 48 48 48 48 48 48 48 49 49 50 51 51 52
38 38 39 40 41 41 42 42 43 43 44 45 45 46 46 46 47 47 48 48 48 49 49 50 50 50 51 51 51 52 52 51 51 51 51 51 51 51 51 52 52 53 54
40 41 41 42 44 45 45 45 46 47 48 49 49 50 50 50 50 51 51 52 52 53 53 53 54 54 54 54 55 55 55 55 54 54 54 54 54 54 54 54 54 55 55
41 42 43 44 46 47 48 48 49 50 51 52 53 54 54 54 54 55 55 55 56 56 57 57 57 57 57 58 58 58 58 58 57 57 57 57 56 56 56 56 57 57 57
42 43 44 45 47 49 50 51 52 53 54 55 57 57 57 57 58 58 58 58 59 59 60 60 60 61 61 61 62 62 61 61 60 60 59 59 58 58 58 58 58 58 59
43 45 45 47 48 50 51 53 54 55 56 58 59 59 59 60 60 60 60 61 61 62 63 63 64 64 64 64 64 63 63 62 61 61 60 60 60 60 60 60 60 60 60
44 45 47 48 50 51 52 54 56 57 58 59 61 62 62 61 61 62 63 64 64 65 65 66 66 66 65 65 65 64 64 63 62 61 61 61 61 61 61 61 61 61 61
45 46 48 49 51 52 53 55 57 58 60 61 63 64 65 63 63 64 65 65 66 66 67 67 67 67 67 66 66 65 64 64 63 63 62 62 62 62 62 62 62 62 61
45 46 48 50 51 53 55 56 58 60 62 63 64 66 67 67 68 66 64 65 66 67 68 68 68 69 69 68 68 67 66 66 65 65 64 63 63 63 63 62 63 63 62
46 48 50 51 53 55 56 58 60 62 63 65 66 67 68 70 70 70 67 66 67 68 68 69 70 70 70 69 69 68 68 67 67 66 65 64 64 63 63 63 63 63 63
48 50 52 54 56 57 59 61 62 64 65 67 68 69 70 71 71 73 72 69 69 68 69 70 70 70 70 70 69 69 68 68 68 66 65 64 63 62 62 62 62 62 62
51 53 56 57 59 61 63 64 66 67 68 69 70 71 72 72 73 74 74 73 72 71 70 70 70 70 70 70 70 70 69 69 68 66 65 64 63 63 62 62 62 62 62
55 57 60 61 63 65 67 68 70 70 71 72 73 73 74 74 75 76 76 76 75 73 72 70 70 71 71 71 70 70 69 69 67 66 65 65 64 63 63 63 63 63 63
61 63 64 66 68 70 71 73 74 74 74 75 75 76 76 76 76 77 77 77 77 75 72 71 72 71 72 72 72 71 70 69 67 66 65 64 64 64 64 64 64 64 64
66 68 70 72 74 75 76 77 77 76 77 77 77 77 77 76 77 77 76 76 77 76 73 70 70 70 71 72 72 71 70 69 68 67 66 66 65 66 66 65 65 65 64
72 74 75 77 78 79 79 79 79 78 78 77 77 77 76 76 76 75 75 74 74 73 71 67 68 69 70 70 70 69 68 67 66 66 65 65 65 66 67 67 66 66 65
77 78 80 80 80 80 80 79 79 78 78 77 77 77 75 75 74 74 73 72 72 71 71 67 66 67 68 68 67 66 66 66 65 65 66 67 66 66 66 65 65 65 66
80 81 82 82 81 81 80 79 78 78 77 76 75 75 73 72 71 70 70 70 69 68 68 66 64 65 65 66 66 66 66 66 66 67 67 67 67 66 65 64 65 65 65
82 82 82 82 81 80 79 78 77 76 75 74 72 71 69 69 68 67 67 66 66 65 65 64 62 63 63 64 65 65 66 67 66 66 66 65 65 65 64 65 65 65 65
82 82 81 80 79 78 76 75 73 72 70 68 67 65 65 65 64 64 64 64 64 64 63 62 61 62 62 63 63 64 65 65 65 65 64 64 64 63 64 64 64 64 65
80 80 79 77 75 73 71 70 68 66 64 62 61 61 60 59 59 60 60 60 60 60 60 61 60 60 61 62 63 63 63 63 62 62 63 63 63 63 62 63 63 63 63
78 77 75 73 70 68 67 64 62 61 58 57 56 55 55 55 56 56 56 56 57 57 58 59 58 58 59 60 61 61 61 61 60 61 61 60 60 60 61 61 62 62 62
74 72 70 67 65 62 61 58 57 55 53 51 51 51 51 51 52 53 53 54 54 55 56 57 56 56 57 58 59 59 60 60 59 59 59 58 59 59 59 60 60 61 61
70 67 64 62 59 57 55 53 51 50 48 47 47 47 48 48 49 50 50 50 51 52 53 54 55 55 56 57 58 59 59 59 58 57 58 57 57 58 58 58 59 60 61
65 62 59 57 55 52 51 49 48 47 45 44 44 44 46 47 47 48 49 49 49 50 51 52 53 54 55 56 56 56 57 57 56 55 55 55 55 56 55 55 56 58 59
Wind_Direction
275 275 275 276 276 277 277 278 278 279 279 280 280 281 282 282 283 284 284 284 284 285 285 285 285 285 285 285 284 283 282 281 279 277 274 272 270 268 266 264 262 261 260
275 275 276 276 276 277 278 278 279 279 280 280 281 281 282 283 283 284 284 284 285 285 285 285 285 285 285 285 285 284 283 282 280 279 277 274 272 270 268 266 264 263 262
276 276 277 277 277 278 278 279 279 280 280 281 281 282 283 283 284 284 284 285 285 285 285 285 285 285 285 285 285 284 283 282 281 279 278 276 274 272 270 268 266 265 263
278 278 278 278 278 279 279 279 280 280 280 281 282 283 283 283 284 284 284 285 285 285 285 285 285 285 285 285 284 284 283 282 281 280 278 277 275 273 271 270 268 267 265
279 279 279 279 280 280 281 281 281 281 281 282 282 283 284 284 284 284 285 285 285 285 285 285 285 285 284 284 284 283 283 282 281 279 278 277 275 273 272 271 269 268 266
281 281 281 281 281 282 282 282 281 282 282 282 282 283 283 283 283 284 284 284 284 284 284 284 284 284 284 283 283 283 282 281 280 279 278 276 275 273 272 271 269 268 267
284 284 284 283 283 283 283 283 283 283 282 282 282 282 282 283 283 283 283 283 283 283 283 283 283 283 283 282 282 282 281 280 280 279 278 276 275 273 272 271 270 268 267
287 287 286 286 285 285 284 284 284 284 283 283 283 283 283 282 283 282 281 282 282 282 282 282 282 282 282 282 281 281 280 280 279 278 277 276 275 273 272 271 270 268 267
288 288 288 287 287 287 286 285 285 285 284 284 284 284 284 283 281 280 280 281 281 281 281 281 281 281 281 281 280 280 279 279 279 278 277 276 275 273 272 271 270 268 267
289 289 288 288 287 287 287 286 286 285 285 285 284 284 284 284 283 281 280 280 279 279 279 279 279 279 279 279 279 279 278 277 278 278 277 276 275 273 271 271 269 268 267
290 290 289 289 289 288 288 287 286 286 286 285 285 284 283 283 283 283 282 280 279 278 278 277 277 278 278 278 278 278 277 277 277 277 276 276 275 273 271 270 269 268 267
292 291 291 291 291 290 289 288 287 287 286 285 285 284 283 283 282 282 282 280 279 278 277 277 277 277 277 277 277 276 276 276 276 276 275 275 274 272 271 270 269 268 267
293 293 293 292 291 291 290 289 288 287 286 285 284 283 283 282 281 281 280 280 278 277 277 276 276 276 276 276 275 275 275 275 275 275 274 273 272 270 269 268 269 268 267
294 294 294 293 292 291 290 290 289 287 286 285 284 282 282 281 280 280 279 278 277 276 276 276 275 275 274 274 274 274 274 275 274 273 272 271 271 270 269 268 268 268 267
296 295 295 294 293 292 291 290 289 287 285 284 283 282 281 280 279 279 278 277 277 276 275 274 274 273 273 272 273 273 273 273 272 271 271 270 270 269 268 268 267 267 267
297 296 296 295 295 293 292 290 289 287 285 284 282 281 280 280 279 278 277 277 276 276 275 274 273 272 272 272 273 273 273 272 271 271 270 269 269 269 268 268 267 266 266
297 297 296 296 295 294 292 290 289 287 285 283 282 281 280 279 278 277 277 277 276 276 276 274 273 272 272 272 272 272 271 271 270 270 270 269 269 268 268 268 266 266 265
299 298 297 296 295 294 292 290 289 287 285 283 282 281 280 279 278 277 277 277 276 275 275 274 273 272 272 271 271 271 270 269 269 269 269 269 269 269 268 267 266 265 265
300 300 299 298 296 294 293 291 289 287 285 283 282 281 280 279 278 277 277 276 276 275 274 274 272 271 271 271 270 270 269 269 269 268 269 269 269 268 267 266 266 265 265
301 301 300 298 297 295 293 291 289 288 286 284 283 282 280 279 278 277 277 276 275 274 274 273 273 272 271 271 271 270 269 269 268 268 269 269 269 268 268 267 266 266 265
302 302 301 299 298 297 295 292 290 289 287 285 283 281 280 279 278 277 276 276 275 274 274 273 273 272 272 272 271 270 269 269 269 269 269 269 269 269 268 267 267 266 265
304 303 302 301 300 298 296 294 292 289 287 285 283 281 280 279 279 278 278 277 276 276 275 275 274 273 273 272 271 270 270 269 270 269 269 269 269 268 268 267 267 266 266
305 305 304 302 301 299 297 295 293 292 290 287 285 282 281 280 280 280 279 278 277 276 276 276 275 274 274 272 271 271 270 270 270 269 269 269 269 268 268 267 267 267 266
307 306 305 304 303 301 299 297 295 293 291 289 287 284 282 281 281 280 280 279 279 278 278 277 276 275 273 272 271 271 271 271 270 270 270 270 269 268 267 266 267 267 266
308 308 307 306 304 303 301 299 297 295 293 291 289 287 285 283 283 283 282 282 280 279 278 277 277 276 275 274 273 272 271 271 270 270 269 269 268 267 267 267 267 267 267
309 309 309 308 306 305 303 301 299 297 295 294 292 290 288 287 286 286 286 285 283 281 280 279 279 278 277 276 275 273 272 271 270 269 269 269 268 267 267 267 267 267 268
Height
5821 5820 5819 5818 5817 5816 5815 5814 5813 5812 5811 5810 5809 5808 5807 5806 5805 5804 5803 5802 5801 5799 5798 5797 5796 5795 5794 5793 5792 5792 5791 5790 5790 5790 5790 5790 5790 5790 5791 5792 5793 5794 5796
5814 5813 5812 5811 5809 5808 5807 5807 5806 5804 5803 5802 5801 5799 5798 5797 5796 5795 5793 5792 5791 5789 5788 5787 5785 5784 5783 5782 5781 5780 5780 5779 5778 5778 5778 5778 5778 5778 5779 5780 5781 5782 5783
5806 5805 5804 5802 5801 5800 5799 5798 5797 5796 5794 5792 5791 5790 5788 5787 5786 5784 5783 5781 5780 5778 5777 5775 5774 5773 5771 5770 5769 5768 5767 5767 5766 5766 5765 5765 5765 5765 5766 5767 5767 5769 5770
5797 5796 5795 5793 5791 5790 5790 5788 5787 5786 5784 5782 5781 5779 5778 5777 5775 5773 5772 5770 5768 5766 5764 5763 5761 5760 5759 5757 5756 5755 5754 5753 5753 5752 5752 5752 5752 5752 5752 5753 5754 5755 5756
5789 5787 5786 5784 5781 5780 5779 5778 5776 5775 5773 5771 5769 5767 5766 5765 5763 5761 5760 5757 5755 5753 5751 5749 5748 5747 5745 5744 5742 5741 5740 5739 5739 5738 5738 5738 5738 5738 5738 5739 5739 5740 5741
5779 5778 5776 5774 5772 5770 5768 5766 5764 5763 5761 5758 5756 5755 5753 5751 5749 5748 5746 5744 5741 5739 5737 5735 5734 5732 5731 5729 5727 5726 5725 5724 5724 5723 5723 5723 5723 5723 5723 5724 5724 5725 5726
5770 5768 5766 5764 5761 5759 5757 5754 5752 5750 5747 5744 5742 5741 5740 5737 5736 5734 5731 5729 5727 5724 5722 5720 5718 5716 5715 5713 5712 5710 5709 5708 5708 5707 5707 5707 5707 5707 5707 5708 5708 5709 5710
5760 5758 5755 5753 5750 5747 5745 5742 5738 5735 5733 5730 5726 5724 5724 5724 5722 5718 5715 5713 5711 5709 5706 5704 5702 5700 5698 5697 5696 5694 5693 5692 5692 5691 5691 5690 5690 5690 5691 5691 5692 5693 5694
5751 5748 5745 5741 5738 5735 5732 5729 5725 5721 5719 5715 5711 5707 5705 5707 5705 5704 5700 5698 5695 5692 5690 5687 5685 5683 5681 5680 5679 5677 5677 5676 5675 5674 5674 5674 5674 5674 5674 5674 5675 5676 5677
5741 5737 5734 5730 5726 5723 5719 5715 5711 5707 5703 5700 5696 5692 5688 5686 5684 5685 5686 5682 5678 5675 5673 5670 5667 5665 5663 5662 5661 5660 5659 5658 5658 5657 5657 5656 5656 5656 5656 5657 5657 5658 5659
5730 5726 5722 5718 5714 5710 5706 5702 5697 5692 5688 5684 5680 5676 5672 5668 5664 5661 5664 5665 5661 5658 5655 5652 5649 5647 5645 5644 5643 5641 5640 5640 5640 5639 5639 5639 5638 5638 5638 5639 5639 5640 5641
5720 5715 5710 5706 5701 5696 5692 5687 5681 5677 5672 5667 5662 5658 5654 5650 5647 5641 5640 5643 5641 5640 5636 5633 5631 5629 5626 5625 5624 5622 5621 5621 5621 5621 5621 5620 5620 5620 5621 5621 5621 5622 5623
5708 5702 5697 5692 5687 5681 5676 5670 5665 5660 5654 5649 5644 5639 5634 5631 5627 5622 5619 5619 5618 5619 5617 5616 5613 5610 5607 5605 5604 5603 5602 5602 5602 5602 5602 5602 5602 5602 5603 5603 5604 5605 5606
5695 5689 5683 5677 5671 5665 5659 5653 5647 5641 5635 5630 5625 5619 5614 5610 5605 5601 5597 5594 5594 5596 5597 5598 5594 5591 5587 5585 5584 5582 5583 5582 5582 5582 5583 5583 5583 5584 5585 5585 5586 5587 5588
5679 5673 5667 5660 5653 5647 5640 5633 5627 5621 5615 5609 5604 5598 5593 5589 5584 5579 5575 5572 5569 5571 5576 5577 5573 5571 5566 5564 5563 5562 5563 5562 5562 5563 5563 5564 5564 5565 5566 5566 5567 5568 5569
5662 5656 5649 5641 5634 5626 5618 5611 5605 5599 5592 5587 5581 5576 5571 5566 5561 5557 5553 5550 5546 5545 5550 5557 5552 5549 5545 5544 5543 5542 5542 5541 5542 5542 5543 5544 5544 5545 5546 5547 5548 5548 5549
5644 5636 5629 5621 5613 5604 5596 5588 5582 5575 5569 5563 5557 5552 5549 5543 5538 5535 5531 5528 5526 5523 5525 5533 5529 5527 5525 5524 5522 5521 5521 5521 5522 5522 5523 5523 5524 5525 5526 5526 5527 5528 5529
5624 5615 5606 5598 5589 5580 5572 5564 5557 5551 5544 5540 5534 5529 5525 5519 5516 5513 5509 5507 5505 5503 5503 5508 5509 5505 5504 5503 5501 5501 5501 5501 5502 5502 5502 5503 5503 5504 5505 5506 5507 5508 5509
5602 5592 5582 5573 5565 5556 5547 5539 5532 5526 5521 5515 5510 5506 5502 5497 5494 5491 5488 5486 5484 5482 5481 5484 5487 5484 5483 5482 5481 5481 5480 5481 5481 5481 5481 5482 5482 5483 5484 5485 5486 5487 5489
5579 5569 5559 5549 5540 5531 5523 5515 5508 5502 5497 5492 5487 5483 5479 5475 5472 5469 5467 5466 5464 5462 5462 5463 5465 5464 5463 5462 5460 5461 5459 5459 5460 5460 5460 5461 5462 5463 5464 5465 5466 5467 5468
5556 5546 5536 5526 5516 5507 5499 5491 5484 5479 5474 5469 5465 5461 5457 5454 5451 5449 5447 5446 5444 5443 5442 5442 5444 5443 5443 5441 5441 5439 5439 5438 5439 5440 5440 5441 5442 5443 5443 5444 5445 5446 5447
5534 5523 5513 5503 5494 5484 5476 5468 5461 5457 5453 5449 5445 5441 5437 5434 5432 5430 5428 5426 5425 5424 5423 5422 5423 5423 5423 5421 5419 5419 5418 5419 5421 5421 5419 5421 5421 5423 5423 5423 5424 5425 5426
5513 5502 5491 5482 5473 5464 5455 5448 5441 5437 5433 5429 5425 5422 5420 5417 5414 5412 5410 5408 5407 5405 5404 5403 5403 5404 5402 5401 5399 5399 5399 5399 5401 5400 5400 5402 5402 5403 5403 5403 5404 5405 5406
5492 5482 5472 5462 5454 5446 5437 5430 5424 5420 5416 5412 5408 5405 5403 5401 5398 5395 5394 5392 5390 5388 5386 5384 5385 5384 5383 5381 5380 5380 5379 5380 5381 5381 5381 5383 5383 5383 5383 5384 5384 5385 5385
5473 5463 5454 5444 5437 5430 5421 5415 5409 5405 5401 5398 5394 5390 5387 5385 5383 5379 5377 5376 5373 5371 5368 5366 5365 5365 5363 5362 5361 5360 5360 5360 5362 5363 5362 5363 5364 5363 5364 5365 5365 5365 5365
5455 5446 5438 5429 5421 5414 5408 5401 5395 5391 5388 5384 5381 5377 5373 5370 5367 5364 5361 5359 5357 5354 5351 5349 5348 5346 5344 5343 5341 5341 5341 5341 5343 5344 5344 5344 5344 5343 5346 5348 5347 5346 5346